�������l�o���
Date,Time,MP-1(��Sv/h),MP-2(��Sv/h),MP-3(��Sv/h),MP-4(��Sv/h),MP-5(��Sv/h),MP-6(��Sv/h),MP-7(��Sv/h),MP-8(��Sv/h),����,����(m/s),���J
2023/06/25,00:00,0.521,0.786,0.482,0.942,0.685,0.323,0.562,0.529,�k�k��,4.4,��
2023/06/25,00:10,0.520,0.786,0.480,0.941,0.684,0.321,0.560,0.529,�k�k��,4.9,��
2023/06/25,00:20,0.518,0.784,0.481,0.941,0.685,0.321,0.562,0.528,�k�k��,5.0,��
2023/06/25,00:30,0.518,0.785,0.482,0.942,0.685,0.323,0.562,0.529,�k�k��,5.2,��
2023/06/25,00:40,0.518,0.785,0.481,0.940,0.686,0.322,0.561,0.529,�k�k��,5.0,��
2023/06/25,00:50,0.519,0.786,0.481,0.942,0.683,0.320,0.563,0.528,�k�k��,4.9,��
2023/06/25,01:00,0.518,0.785,0.480,0.942,0.684,0.320,0.562,0.529,�k�k��,4.5,��
2023/06/25,01:10,0.517,0.784,0.483,0.942,0.684,0.322,0.562,0.527,�k,4.0,��
2023/06/25,01:20,0.519,0.784,0.481,0.942,0.686,0.320,0.561,0.528,�k�k��,4.0,��
2023/06/25,01:30,0.519,0.784,0.482,0.943,0.686,0.321,0.561,0.528,�k�k��,3.5,��
2023/06/25,01:40,0.519,0.783,0.481,0.940,0.687,0.321,0.562,0.529,�k�k��,2.3,��
2023/06/25,01:50,0.518,0.784,0.482,0.942,0.685,0.322,0.561,0.530,�k�k��,2.3,��
2023/06/25,02:00,0.518,0.784,0.483,0.940,0.684,0.321,0.561,0.530,�k�k��,3.5,��
2023/06/25,02:10,0.518,0.784,0.481,0.939,0.685,0.322,0.562,0.530,�k�k��,2.6,��
2023/06/25,02:20,0.519,0.784,0.482,0.943,0.686,0.320,0.560,0.529,�k�k��,3.2,��
2023/06/25,02:30,0.518,0.787,0.480,0.944,0.683,0.321,0.562,0.529,�k,3.9,��
2023/06/25,02:40,0.518,0.783,0.481,0.942,0.688,0.321,0.561,0.529,�k�k��,4.5,��
2023/06/25,02:50,0.518,0.785,0.481,0.944,0.686,0.321,0.562,0.528,�k�k��,4.4,��
2023/06/25,03:00,0.517,0.785,0.480,0.942,0.686,0.321,0.562,0.529,�k,4.4,��
2023/06/25,03:10,0.518,0.784,0.482,0.941,0.684,0.320,0.561,0.528,�k,3.9,��
2023/06/25,03:20,0.517,0.787,0.480,0.941,0.686,0.321,0.560,0.528,�k,4.0,��
2023/06/25,03:30,0.518,0.784,0.482,0.944,0.686,0.319,0.562,0.530,�k�k��,3.6,��
2023/06/25,03:40,0.520,0.784,0.481,0.942,0.686,0.320,0.562,0.529,�k�k��,2.6,��
2023/06/25,03:50,0.518,0.786,0.481,0.941,0.684,0.320,0.561,0.529,�k�k��,3.1,��
2023/06/25,04:00,0.518,0.785,0.481,0.940,0.686,0.320,0.561,0.530,�k�k��,3.1,��
2023/06/25,04:10,0.515,0.782,0.482,0.943,0.685,0.320,0.563,0.529,�k�k��,3.2,��
2023/06/25,04:20,0.518,0.782,0.480,0.940,0.684,0.320,0.563,0.527,�k�k��,3.6,��
2023/06/25,04:30,0.517,0.784,0.479,0.942,0.685,0.318,0.562,0.528,�k��,3.2,��
2023/06/25,04:40,0.518,0.782,0.481,0.942,0.685,0.320,0.562,0.529,�k�k��,3.0,��
2023/06/25,04:50,0.518,0.782,0.480,0.940,0.684,0.319,0.562,0.527,�k�k��,3.4,��
2023/06/25,05:00,0.516,0.785,0.481,0.941,0.684,0.321,0.562,0.527,�k�k��,3.1,��
2023/06/25,05:10,0.517,0.783,0.481,0.944,0.685,0.320,0.561,0.528,�k�k��,2.9,��
2023/06/25,05:20,0.517,0.783,0.481,0.941,0.684,0.320,0.561,0.528,�k�k��,2.9,��
2023/06/25,05:30,0.517,0.784,0.480,0.940,0.685,0.321,0.561,0.529,�k�k��,3.3,��
2023/06/25,05:40,0.518,0.784,0.480,0.941,0.685,0.320,0.564,0.528,�k�k��,2.9,��
2023/06/25,05:50,0.516,0.783,0.481,0.941,0.684,0.322,0.562,0.529,�k�k��,2.9,��
2023/06/25,06:00,0.517,0.784,0.481,0.944,0.683,0.320,0.562,0.529,�k�k��,2.8,��
2023/06/25,06:10,0.518,0.785,0.480,0.942,0.686,0.321,0.563,0.529,�k�k��,2.6,��
2023/06/25,06:20,0.516,0.779,0.480,0.943,0.682,0.320,0.563,0.530,�k�k��,3.3,��
2023/06/25,06:30,0.517,0.781,0.481,0.943,0.683,0.320,0.562,0.529,�k�k��,3.3,��
2023/06/25,06:40,0.516,0.780,0.481,0.942,0.684,0.322,0.561,0.530,�k,2.6,��
2023/06/25,06:50,0.515,0.780,0.480,0.941,0.683,0.318,0.562,0.529,�k,2.5,��
2023/06/25,07:00,0.516,0.782,0.480,0.943,0.685,0.319,0.560,0.529,�k,2.8,��
2023/06/25,07:10,0.516,0.779,0.480,0.941,0.685,0.320,0.563,0.529,�k,2.2,��
2023/06/25,07:20,0.516,0.782,0.482,0.943,0.683,0.319,0.561,0.528,�k�k��,1.9,��
2023/06/25,07:30,0.518,0.783,0.480,0.941,0.684,0.320,0.561,0.529,�k�k��,1.9,��
2023/06/25,07:40,0.519,0.782,0.481,0.943,0.683,0.319,0.560,0.528,�k�k��,2.0,��
2023/06/25,07:50,0.520,0.784,0.479,0.942,0.683,0.319,0.561,0.526,�k�k��,3.2,��
2023/06/25,08:00,0.518,0.785,0.480,0.943,0.684,0.319,0.561,0.528,�k�k��,3.5,��
2023/06/25,08:10,0.519,0.782,0.480,0.942,0.682,0.320,0.562,0.526,�k�k��,3.2,��
2023/06/25,08:20,0.517,0.784,0.480,0.941,0.686,0.319,0.561,0.529,�k�k��,3.4,��
2023/06/25,08:30,0.518,0.785,0.481,0.940,0.684,0.319,0.561,0.526,�k�k��,3.7,��
2023/06/25,08:40,0.518,0.784,0.479,0.941,0.685,0.320,0.562,0.528,�k�k��,4.3,��
2023/06/25,08:50,0.519,0.783,0.480,0.941,0.683,0.319,0.560,0.526,�k�k��,3.6,��
2023/06/25,09:00,0.519,0.785,0.481,0.940,0.685,0.320,0.560,0.529,�k�k��,3.5,��
2023/06/25,09:10,0.517,0.785,0.481,0.942,0.683,0.320,0.561,0.528,�k��,3.9,��
2023/06/25,09:20,0.518,0.785,0.480,0.942,0.686,0.320,0.561,0.527,�k��,3.4,��
2023/06/25,09:30,0.519,0.786,0.481,0.941,0.685,0.319,0.561,0.528,���k��,2.8,��
2023/06/25,09:40,0.519,0.788,0.481,0.943,0.684,0.321,0.560,0.528,���k��,2.6,��
2023/06/25,09:50,0.520,0.786,0.480,0.943,0.685,0.321,0.561,0.529,�k��,2.6,��
2023/06/25,10:00,0.517,0.788,0.480,0.942,0.685,0.318,0.562,0.527,�k��,2.3,��
2023/06/25,10:10,0.519,0.787,0.481,0.945,0.684,0.319,0.562,0.527,���k��,2.2,��
2023/06/25,10:20,0.518,0.787,0.480,0.942,0.686,0.321,0.561,0.529,���k��,1.7,��
2023/06/25,10:30,0.518,0.788,0.480,0.943,0.686,0.320,0.559,0.529,���k��,1.8,��
2023/06/25,10:40,0.519,0.786,0.479,0.940,0.685,0.320,0.561,0.529,��,2.0,��
2023/06/25,10:50,0.518,0.788,0.481,0.943,0.686,0.321,0.561,0.530,���쓌,2.8,��
2023/06/25,11:00,0.519,0.788,0.481,0.941,0.687,0.321,0.561,0.527,���k��,2.0,��
2023/06/25,11:10,0.520,0.789,0.481,0.941,0.685,0.321,0.560,0.528,���k��,2.2,��
2023/06/25,11:20,0.519,0.788,0.481,0.941,0.688,0.321,0.561,0.528,��,3.2,��
2023/06/25,11:30,0.518,0.790,0.481,0.940,0.687,0.320,0.560,0.529,��,2.7,��
2023/06/25,11:40,0.519,0.787,0.482,0.940,0.684,0.321,0.560,0.529,���k��,2.3,��
2023/06/25,11:50,0.518,0.788,0.480,0.941,0.682,0.320,0.561,0.530,���k��,2.6,��
2023/06/25,12:00,0.517,0.790,0.481,0.941,0.687,0.320,0.562,0.529,���k��,2.9,��
2023/06/25,12:10,0.520,0.789,0.480,0.940,0.688,0.322,0.562,0.530,���k��,2.3,��
2023/06/25,12:20,0.518,0.790,0.482,0.943,0.689,0.320,0.561,0.528,���k��,2.3,��
2023/06/25,12:30,0.520,0.792,0.480,0.941,0.688,0.321,0.561,0.531,�k��,2.2,��
2023/06/25,12:40,0.520,0.788,0.482,0.940,0.689,0.321,0.562,0.528,�k��,2.2,��
2023/06/25,12:50,0.519,0.790,0.482,0.943,0.688,0.320,0.562,0.528,��,1.7,��
2023/06/25,13:00,0.520,0.789,0.482,0.942,0.690,0.320,0.562,0.527,�k��,2.8,��
2023/06/25,13:10,0.521,0.792,0.482,0.944,0.688,0.321,0.560,0.528,��,1.7,��
2023/06/25,13:20,0.520,0.789,0.483,0.943,0.688,0.321,0.561,0.529,���쓌,2.8,��
2023/06/25,13:30,0.520,0.791,0.483,0.944,0.690,0.322,0.561,0.529,���쓌,2.9,��
2023/06/25,13:40,0.521,0.792,0.482,0.943,0.690,0.320,0.562,0.529,���쓌,3.1,��
2023/06/25,13:50,0.521,0.791,0.484,0.944,0.690,0.322,0.560,0.529,���k��,2.1,��
2023/06/25,14:00,0.522,0.790,0.482,0.941,0.689,0.320,0.562,0.528,���쓌,2.6,��
2023/06/25,14:10,0.521,0.792,0.485,0.945,0.691,0.321,0.563,0.529,���쓌,3.1,��
2023/06/25,14:20,0.521,0.791,0.484,0.944,0.691,0.323,0.563,0.529,��,2.9,��
2023/06/25,14:30,0.522,0.792,0.483,0.944,0.690,0.322,0.563,0.530,�쓌,3.0,��
2023/06/25,14:40,0.521,0.790,0.483,0.943,0.692,0.320,0.564,0.531,���쓌,2.6,��
2023/06/25,14:50,0.523,0.792,0.483,0.944,0.690,0.323,0.562,0.528,��,2.8,��
2023/06/25,15:00,0.521,0.793,0.484,0.946,0.692,0.321,0.562,0.531,��,2.9,��
2023/06/25,15:10,0.521,0.793,0.484,0.946,0.692,0.321,0.563,0.529,���쓌,2.5,��
2023/06/25,15:20,0.520,0.792,0.484,0.946,0.692,0.322,0.562,0.528,���쓌,2.3,��
2023/06/25,15:30,0.521,0.791,0.482,0.947,0.692,0.323,0.565,0.529,��,2.3,��
2023/06/25,15:40,0.522,0.794,0.482,0.944,0.691,0.322,0.563,0.529,���쓌,2.6,��
2023/06/25,15:50,0.523,0.792,0.483,0.946,0.691,0.322,0.564,0.529,���쓌,2.9,��
2023/06/25,16:00,0.521,0.792,0.483,0.946,0.692,0.322,0.562,0.529,�쓌,3.1,��
2023/06/25,16:10,0.521,0.793,0.485,0.946,0.692,0.322,0.563,0.529,�쓌,2.3,��
2023/06/25,16:20,0.521,0.792,0.483,0.945,0.691,0.321,0.563,0.531,�쓌,2.2,��
2023/06/25,16:30,0.521,0.794,0.485,0.946,0.689,0.322,0.564,0.530,��,2.0,��
2023/06/25,16:40,0.522,0.792,0.483,0.949,0.692,0.322,0.562,0.528,���쓌,2.9,��
2023/06/25,16:50,0.521,0.791,0.482,0.949,0.694,0.320,0.564,0.530,���쓌,2.5,��
2023/06/25,17:00,0.522,0.794,0.483,0.945,0.692,0.321,0.564,0.528,���쓌,2.6,��
2023/06/25,17:10,0.523,0.794,0.484,0.948,0.692,0.321,0.563,0.528,���쓌,2.0,��
2023/06/25,17:20,0.524,0.791,0.483,0.948,0.690,0.320,0.563,0.528,��,2.8,��
2023/06/25,17:30,0.521,0.791,0.482,0.947,0.691,0.323,0.563,0.530,���쓌,1.9,��
2023/06/25,17:40,0.522,0.792,0.482,0.949,0.692,0.321,0.564,0.529,���쓌,2.6,��
2023/06/25,17:50,0.522,0.791,0.484,0.948,0.694,0.323,0.563,0.527,���쓌,2.2,��
2023/06/25,18:00,0.522,0.794,0.483,0.947,0.693,0.321,0.563,0.528,�쓌,3.1,��
2023/06/25,18:10,0.521,0.795,0.484,0.949,0.694,0.324,0.563,0.529,�쓌,2.3,��
2023/06/25,18:20,0.523,0.793,0.484,0.949,0.694,0.322,0.561,0.531,���쓌,2.2,��
2023/06/25,18:30,0.522,0.796,0.483,0.950,0.693,0.323,0.562,0.531,���쓌,1.5,��
2023/06/25,18:40,0.524,0.796,0.484,0.950,0.693,0.322,0.563,0.531,��,1.7,��
2023/06/25,18:50,0.524,0.794,0.486,0.948,0.693,0.322,0.562,0.531,��,1.7,��
2023/06/25,19:00,0.523,0.793,0.486,0.947,0.694,0.323,0.563,0.531,���k��,1.2,��
2023/06/25,19:10,0.524,0.795,0.485,0.947,0.692,0.323,0.563,0.531,��,1.2,��
2023/06/25,19:20,0.524,0.795,0.485,0.948,0.694,0.324,0.566,0.531,��,1.5,��
2023/06/25,19:30,0.524,0.797,0.486,0.948,0.693,0.324,0.564,0.531,��,1.5,��
2023/06/25,19:40,0.524,0.796,0.486,0.948,0.695,0.323,0.565,0.530,��,1.2,��
2023/06/25,19:50,0.524,0.796,0.485,0.949,0.694,0.323,0.564,0.533,�k��,0.9,��
2023/06/25,20:00,0.525,0.797,0.487,0.951,0.694,0.323,0.564,0.531,���쓌,0.9,��
2023/06/25,20:10,0.524,0.796,0.485,0.950,0.692,0.322,0.563,0.530,���k��,1.1,��
2023/06/25,20:20,0.523,0.794,0.485,0.951,0.694,0.323,0.563,0.532,��,0.6,��
2023/06/25,20:30,0.522,0.794,0.486,0.952,0.695,0.322,0.562,0.533,�쓌,0.6,��
2023/06/25,20:40,0.525,0.795,0.486,0.950,0.694,0.322,0.563,0.531,�쓌,0.9,��
2023/06/25,20:50,0.523,0.797,0.485,0.952,0.693,0.322,0.563,0.530,-,CALM,��
2023/06/25,21:00,0.524,0.796,0.485,0.953,0.693,0.323,0.563,0.530,���k��,0.9,��
2023/06/25,21:10,0.523,0.795,0.487,0.952,0.694,0.321,0.562,0.531,-,CALM,��
2023/06/25,21:20,0.524,0.796,0.486,0.952,0.694,0.323,0.564,0.532,��,0.6,��
2023/06/25,21:30,0.522,0.796,0.485,0.951,0.694,0.322,0.563,0.530,-,CALM,��
2023/06/25,21:40,0.524,0.795,0.485,0.949,0.695,0.322,0.563,0.530,��쐼,0.9,��
2023/06/25,21:50,0.525,0.796,0.486,0.953,0.695,0.324,0.564,0.531,��쐼,0.9,��
2023/06/25,22:00,0.524,0.796,0.487,0.953,0.695,0.321,0.562,0.529,��,0.9,��
2023/06/25,22:10,0.523,0.795,0.486,0.951,0.692,0.322,0.563,0.529,�쐼,0.6,��
2023/06/25,22:20,0.522,0.795,0.486,0.954,0.694,0.323,0.562,0.532,��,0.6,��
2023/06/25,22:30,0.523,0.797,0.485,0.951,0.694,0.323,0.563,0.530,-,CALM,��
2023/06/25,22:40,0.524,0.796,0.486,0.953,0.695,0.323,0.563,0.531,-,CALM,��
2023/06/25,22:50,0.523,0.795,0.487,0.952,0.693,0.323,0.563,0.531,���k��,0.9,��
2023/06/25,23:00,0.522,0.797,0.486,0.951,0.694,0.323,0.562,0.531,��,0.9,��
2023/06/25,23:10,0.524,0.797,0.487,0.954,0.694,0.324,0.564,0.530,��,1.1,��
2023/06/25,23:20,0.524,0.795,0.487,0.951,0.696,0.323,0.565,0.530,��,1.2,��
2023/06/25,23:30,0.523,0.795,0.487,0.951,0.697,0.322,0.563,0.530,��,1.2,��
2023/06/25,23:40,0.523,0.794,0.486,0.951,0.695,0.323,0.565,0.531,-,CALM,��
2023/06/25,23:50,0.524,0.797,0.486,0.955,0.693,0.321,0.563,0.531,-,CALM,��
